Погода в Горнореченске

Россия / Ханты-Мансийский автономный округ - Югра     61°47′21″N   67°36′02″E
темп.,
°C
ветер,
м/с
пор.,
м/с
влажн.,
%
обл.,
%
осадки,
мм/ч
давл.,
гПа
погр.,
м
27 января, чт
чт2723:00−19ю3499100 0.0 102043
02:00−19ю3499100 0.0 102047
05:00−18ююв3597100 0.0 102066
08:00−16ююв4794100 0.0 1018104
11:00−13ююв51189100 0.0 1017225
14:00−11ююв61190100 0.0 1015340
17:00−12ю5109396 0.0 1015301
20:00−11ю5119591 0.1 1015349
28 января, пт
пт2823:00−10ю51094100 0.4 1015435
02:00−10ююз5109593 0.3 1015338
05:00−11юз369780 0.5 101699
08:00−14юз369693 0.0 1017120
11:00−15юз359579 0.1 1019154
14:00−15юз34955 0.0 1019102
17:00−20ююз3410038 0.0 102131
20:00−22юз2210018 0.0 102121
29 января, сб
сб2923:00−24ююз2210019 0.0 102210
02:00−25ю2210060 0.0 102212
05:00−26ю2210061 0.0 102317
08:00−25ю2310072 0.0 102433
11:00−22ю2310081 0.0 102461
14:00−18ю239536 0.0 102475
17:00−21ююв3310037 0.0 102421
20:00−19ююв349978 0.0 102455
30 января, вс
вс3023:00−18ююв349699 0.0 102370
02:00−16юв3696100 0.0 1023115
05:00−15юв4796100 0.0 1021125
08:00−14вюв4995100 0.0 1020174
11:00−12вюв51193100 0.0 1018318
14:00−10вюв51087100 0.0 1016399
17:00−11вюв5988100 0.0 1014335
20:00−12юв4990100 0.0 1013345
31 января, пн
пн3123:00−12юв4794100 0.0 1012253
02:00−12ююв3695100 0.1 1012282
05:00−13ю359671 0.4 1012138
08:00−17ю349976 0.1 101357
11:00−18ю349879 0.1 101488
14:00−15ююв349565 0.0 1015102
17:00−17ююв329860 0.0 101627
20:00−14ююв239765 0.1 101666